Vacaville, CA

7:41 PM PST on November 20, 2017 (GMT -0800)
Nut Tree

Weather History for KVCB - March, 2013

Change the Weather History Date:

Friday, March 29, 2013

  Actual Average Record
Temperature  
Mean Temperature 62 °F -  
Max Temperature 77 °F 71 °F 89 °F (1968)
Min Temperature 46 °F 45 °F 33 °F (1972)
Degree Days  
Heating Degree Days 4    
Growing Degree Days 12 (Base 50)    
Moisture  
Dew Point 48 °F    
Average Humidity 62    
Maximum Humidity 93    
Minimum Humidity 36    
Precipitation  
Precipitation 0.00 in - - ()
Sea Level Pressure  
Sea Level Pressure 30.07 in    
Wind  
Wind Speed 4 mph (NNW)    
Max Wind Speed 9 mph    
Max Gust Speed 20 mph    
Visibility 10 miles    
Events      
Averages and records for this station are not official NWS values.
T = Trace of Precipitation, MM = Missing Value Source: NWS Daily Summary

Daily Weather History Graph

Daily Weather History Graph

Search for Another Location

Airport or City:

Trip Planner

Search our weather history database for the weather conditions in past years. The results will help you decide how hot, cold, wet, or windy it might be!

Date:

Astronomy

Mar. 29, 2013 Rise Set
Actual Time 6:56 AM PDT 7:28 PM PDT
Civil Twilight 6:30 AM PDT 7:55 PM PDT
Nautical Twilight 5:59 AM PDT 8:26 PM PDT
Astronomical Twilight 5:27 AM PDT 8:58 PM PDT
Moon 10:31 PM PDT (3/29) 8:12 AM PDT (3/29)
Length of Visible Light 13h 24m
Length of Day
12h 31m
Waning Gibbous, 93% of the Moon is Illuminated
Mar 29
Waning Gibbous
Apr 2
Last Quarter
Apr 10
New
Apr 18
First Quarter
Apr 25
Full

Hourly Weather History & Observations

Time (PDT) Temp. Dew Point Humidity Pressure Visibility Wind Dir Wind Speed Gust Speed Precip Events Conditions
12:53 AM 54.0 °F 48.9 °F 83% 30.10 in 10.0 mi North 8.1 mph - N/A   Clear
1:53 AM 53.1 °F 48.9 °F 86% 30.10 in 10.0 mi North 4.6 mph - N/A   Clear
2:53 AM 54.0 °F 48.0 °F 80% 30.09 in 10.0 mi North 5.8 mph - N/A   Clear
3:53 AM 52.0 °F 46.0 °F 80% 30.09 in 10.0 mi North 3.5 mph - N/A   Clear
4:53 AM 51.1 °F 46.0 °F 83% 30.09 in 10.0 mi Calm Calm - N/A   Clear
5:53 AM 48.0 °F 45.0 °F 89% 30.10 in 10.0 mi Calm Calm - N/A   Clear
6:53 AM 46.9 °F 45.0 °F 93% 30.10 in 10.0 mi Calm Calm - N/A   Clear
7:53 AM 55.9 °F 46.9 °F 72% 30.10 in 10.0 mi North 4.6 mph - N/A   Clear
8:53 AM 61.0 °F 48.9 °F 64% 30.11 in 10.0 mi North 8.1 mph - N/A   Clear
9:53 AM 64.9 °F 48.0 °F 54% 30.11 in 10.0 mi North 5.8 mph - N/A   Clear
10:53 AM 68.0 °F 48.9 °F 50% 30.11 in 10.0 mi North 9.2 mph 19.6 mph N/A   Clear
11:53 AM 71.1 °F 48.9 °F 45% 30.11 in 10.0 mi North 6.9 mph - N/A   Clear
12:53 PM 73.0 °F 48.9 °F 42% 30.09 in 10.0 mi Variable 4.6 mph - N/A   Clear
1:53 PM 75.0 °F 48.9 °F 40% 30.08 in 10.0 mi Variable 6.9 mph - N/A   Clear
2:53 PM 75.0 °F 48.9 °F 40% 30.05 in 10.0 mi Variable 3.5 mph - N/A   Clear
3:53 PM 75.9 °F 46.9 °F 36% 30.03 in 10.0 mi Calm Calm - N/A   Clear
4:53 PM 77.0 °F 48.0 °F 36% 30.02 in 10.0 mi Variable 3.5 mph - N/A   Clear
5:53 PM 75.0 °F 46.9 °F 37% 30.02 in 10.0 mi WNW 3.5 mph - N/A   Clear
6:53 PM 72.0 °F 48.0 °F 43% 30.01 in 10.0 mi NNE 3.5 mph - N/A   Clear
7:53 PM 64.9 °F 51.1 °F 61% 30.01 in 10.0 mi Calm Calm - N/A   Clear
8:53 PM 64.0 °F 51.1 °F 63% 30.03 in 10.0 mi WSW 3.5 mph - N/A   Clear
9:53 PM 62.1 °F 50.0 °F 65% 30.04 in 10.0 mi SW 3.5 mph - N/A   Clear
10:53 PM 57.0 °F 48.9 °F 74% 30.04 in 10.0 mi Calm Calm - N/A   Clear
11:53 PM 55.0 °F 46.9 °F 74% 30.03 in 10.0 mi Calm Calm - N/A   Clear